Location: Cahas Mountain Overlook
(37.0833°N, 80.1000°W)
Time: 19:37:03
(UTC-04:00)

SR - Pass Details

Date: 17 February 2026
Orbit: 572 x 849 km, 66.7° (Epoch: 13 March)

Event Time Altitude Azimuth Distance (km) Brightness Sun altitude
Rises 12:18:41 0° 351° (N) 3,076 ? 41.0°
Reaches altitude 10° 12:22:21 10° 20° (NNE) 2,224 ? 41.0°
Maximum altitude 12:24:38 13° 47° (NE) 2,067 ? 41.1°
Drops below altitude 10° 12:27:00 10° 74° (ENE) 2,302 ? 41.1°
Sets 12:30:56 0° 101° (E) 3,288 ? 41.1°
